Regional Weather Roundup
Issued by NWS

Home | Current Version | Previous Version | Graphics & Text | Print | Product List | Glossary On
Versions: 1 2 3 4 5 6 7 8 9 10 11 12 13 14 15 16 17 18 19 20 21 22 23 24 25 26 27 28 29 30 31 32 33 34 35 36 37 38 39 40 41 42 43 44 45 46 47 48 49 50
000
ASUS45 KSLC 060710
RWRUT

UTAH REGIONAL WEATHER ROUNDUP
NATIONAL WEATHER SERVICE SALT LAKE CITY UT
100 AM MDT WED MAY 06 2015

UTZ001>011-023>025-060800-

NORTHERN UTAH

CITY           SKY/WX    TMP DP  RH WIND       PRES   REMARKS
HILL AFB       CLOUDY    54  50  85 S10       29.82F
LOGAN          CLEAR     52  48  86 E5        29.81S
OGDEN          CLOUDY    56  49  77 S9        29.81F
PROVO AIRPORT  CLOUDY    52  46  82 S8        29.87S
SALT LAKE CITY CLOUDY    56  49  77 SE10      29.82F
VERNAL         LGT RAIN  51  48  89 MISG      29.82S
WENDOVER       CLOUDY    55  46  71 NW3       29.84F
HEBER CITY     DRIZZLE   48  45  87 W3        29.87S
WEST JORDAN    CLOUDY    54  52  94 S6        29.85S

$$

UTZ012>022-026-027-060800-

SOUTHERN/CENTRAL UTAH

CITY           SKY/WX    TMP DP  RH WIND       PRES   REMARKS
BLANDING       MOCLDY    50  47  92 CALM      29.96F
BRYCE CANYON   CLOUDY    40  37  89 NW5       29.99S
CEDAR CITY     LGT RAIN  49  42  77 S12       29.94S
DELTA          CLOUDY    51  49  95 CALM      29.91R
HANKSVILLE     CLOUDY    54  50  87 CALM      29.84S
MILFORD        CLOUDY    51  46  83 S8        29.90S
MOAB/CYNLANDS  CLOUDY    55  54  96 SW3       29.80S
PRICE          CLOUDY    52  47  83 CALM      29.86S
ST GEORGE      CLOUDY    59  52  77 SE7       29.92F
KANAB          CLOUDY    52  46  82 SW9       29.98R

$$

REGIONAL REPORTS     COLORADO/ARIZONA

CITY           SKY/WX    TMP DP  RH WIND       PRES   REMARKS
CRAIG, CO      LGT RAIN  50  46  86 SW10      29.81F
GRAND JUNCTION LGT RAIN  52  50  93 NW7       29.82S
RIFLE          RAIN      49  47  93 E5        29.84S FOG
MONTROSE       LGT RAIN  50  47  89 S8        29.87S
CORTEZ         CLOUDY    48  47  96 NE5       29.91S
PAGE, AZ       LGT RAIN  58  49  72 SW7       29.89S
GRAND CANYON   PTCLDY    42  39  89 SW3       30.02S
KINGMAN        MOCLDY    60  33  36 S8        29.89S
FLAGSTAFF      PTCLDY    40  40 100 CALM      30.05S

$$

REGIONAL REPORTS    NEVADA/IDAHO/WYOMING

CITY           SKY/WX    TMP DP  RH WIND       PRES   REMARKS
LAS VEGAS, NV  MOCLDY    77  33  20 S17       29.72S
ELY            CLOUDY    50  38  63 S8        29.91F
ELKO           CLEAR     53  31  42 E7        29.83S
POCATELLO, ID  CLEAR     55  22  27 SW21      29.81S
BURLEY         LGT RAIN  52  23  32 W14G22    29.81S
EVANSTON, WY   LGT RAIN  44  43  96 SW9       29.90S
ROCK SPRINGS   CLOUDY    47  41  80 SW13      29.83F
KEMMERER       CLOUDY    43  41  93 W8        29.89S

$$



USA.gov is the U.S. government's official web portal to all federal, state and local government web resources and services.